Weather in Orletsy

Russia / Kirov Oblast     59°44′58″N   51°04′05″E
temp.,
°C
wind,
m/s
gust,
m/s
humid.,
%
clouds,
%
prec.,
mm/h
press.,
hPa
HPBL,
m
16 may, sun
sun1600:00+16s2288100 0.8 101336
03:00+15s2108869 0.8 1013199
06:00+18sw41177100 0.4 1013433
09:00+22sw41162100 0.6 1012962
12:00+24wsw595091 0.2 10121265
15:00+26wsw6124589 0.2 10112742
18:00+21ssw2261100 0.1 101039
21:00+15sw412875 3.3 1012314
17 may, mon
mon1700:00+13ssw39940 0.0 1013231
03:00+12sw28962 0.0 1013201
06:00+16wsw310805 0.0 1014452
09:00+21wsw59533 0.0 10141565
12:00+23wsw694248 0.0 10142500
15:00+23wnw69450 0.0 10151817
18:00+20nw475717 0.0 1016788
21:00+14nw38860 0.1 1018269
18 may, tue
tue1800:00+11nnw2795100 0.0 1020192
03:00+10nne269717 0.0 1021147
06:00+13nne247426 0.0 1022523
09:00+17ne34555 0.0 1022904
12:00+21e33435 0.0 10221279
15:00+22ese333962 0.0 10221394
18:00+20e25505 0.0 1022210
21:00+14ese36685 0.0 102292
19 may, wed
wed1900:00+12se267555 0.0 1023100
03:00+11sse2877100 0.0 1023150
06:00+15sse3962100 0.0 1023284
09:00+20s3547100 0.0 1022704
12:00+23s444052 0.0 10211171
15:00+25s343625 0.0 10201366
18:00+22s254847 0.0 1020169
21:00+16s2365100 0.0 102051
20 may, thu
thu2000:00+14s2267100 0.0 102042
03:00+12s2274100 0.0 102030
06:00+16s366257 0.0 1020209
09:00+22sse354448 0.0 1019740
12:00+26s4635100 0.0 10181963
15:00+26s5632100 0.0 10171973
18:00+22s3845100 0.0 1017266
21:00+16s3963100 0.0 1017162